Regional Weather Roundup
Issued by NWS

Home | Current Version | Previous Version | Text Only | Print | Product List | Glossary Off
Versions: 1 2 3 4 5 6 7 8 9 10 11 12 13 14 15 16 17 18 19 20 21 22 23 24 25 26 27 28 29 30 31 32 33 34 35 36 37 38 39 40 41 42 43 44 45 46 47 48 49 50

000
ASUS43 KBIS 251802
RWRND

NORTH DAKOTA REGIONAL WEATHER ROUNDUP
NATIONAL WEATHER SERVICE BISMARCK ND
100 PM CDT THU AUG 25 2016

NOTE: "FAIR" INDICATES FEW OR NO CLOUDS BELOW 12,000 FEET WITH NO
SIGNIFICANT WEATHER AND/OR OBSTRUCTIONS TO VISIBILITY.


NDZ001>003-009>011-017-251900-
NORTHWEST NORTH DAKOTA

CITY           SKY/WX    TMP DP  RH WIND       PRES   REMARKS
WILLISTON      MOSUNNY   72  40  31 W8        30.17F
6HR MIN TEMP:  52; 6HR MAX TEMP:  72;

MINOT          PTSUNNY   68  48  48 W12       30.12F
MINOT AFB      MOSUNNY   67  47  48 W13G20    30.11F
$$

NDZ018>021-031>035-040>046-251900-
SOUTHWEST NORTH DAKOTA

CITY           SKY/WX    TMP DP  RH WIND       PRES   REMARKS
BISMARCK       CLOUDY    63  49  60 W10       30.18R
6HR MIN TEMP:  55; 6HR MAX TEMP:  64; 6HR PCP: TRACE;

DICKINSON      PTSUNNY   63  41  44 N7        30.20F
GARRISON         N/A     65  45  48 NW12      30.16F
6HR MIN TEMP:  52; 6HR MAX TEMP:  65;

HETTINGER ARPT CLOUDY    63  44  50 N15G22    30.25S
$$

NDZ004>008-012>016-024-026-027-054-251900-
NORTHEAST NORTH DAKOTA

CITY           SKY/WX    TMP DP  RH WIND       PRES   REMARKS
GRAND FORKS    MOSUNNY   68  51  54 N20       30.02R
GRND FRKS AFB  MOSUNNY   67  50  54 N14G22    30.03S
DEVILS LAKE    CLOUDY    63  50  62 NW15      30.09S
$$

NDZ022-023-025-028>030-036>039-047>053-251900-
SOUTHEAST NORTH DAKOTA

CITY           SKY/WX    TMP DP  RH WIND       PRES   REMARKS
FARGO          CLOUDY    63  55  75 NW14      30.05R
6HR MIN TEMP:  57; 6HR MAX TEMP:  66; 6HR PCP: TRACE;

JAMESTOWN      PTSUNNY   63  54  72 NW10      30.11S
$$




USA.gov is the U.S. government's official web portal to all federal, state and local government web resources and services.